Location: Ellerstadt
(49.4644°N, 8.2615°E)
Time: 01:16:30
(UTC+00:00)

ISS - Pass Details

Date: 16 May 2021
Orbit: 417 x 422 km, 51.6° (Epoch: 15 June)

Event Time Altitude Azimuth Distance (km) Brightness Sun altitude
Rises 20:49:41 0° 239° (WSW) 2,357 0.1 -13.3°
Reaches altitude 10° 20:51:47 10° 237° (WSW) 1,497 -0.9 -13.5°
Maximum altitude 20:55:07 63° 155° (SSE) 473 -3.8 -13.8°
Drops below altitude 10° 20:58:28 10° 74° (ENE) 1,507 -1.1 -14.1°
Sets 21:00:35 0° 71° (ENE) 2,374 -0.1 -14.3°
